Weather History for Kiana, AK

Change the Weather History Date:

Saturday, March 15, 2014

  Actual Average (PASK) Record (PASK)
Temperature  
Mean Temperature 4 °F -  
Max Temperature -2 °F 6 °F 33 °F (1999)
Min Temperature 0 °F -4 °F -34 °F (2003)
Degree Days  
Heating Degree Days 60    
Moisture  
Dew Point 2 °F    
Average Humidity 83    
Maximum Humidity 87    
Minimum Humidity 72    
Precipitation  
Precipitation 0.00 in - - ()
Sea Level Pressure  
Sea Level Pressure 29.64 in    
Wind  
Wind Speed 8 mph (SSW)    
Max Wind Speed 13 mph    
Max Gust Speed 18 mph    
Visibility 5 miles    
Events Snow    
Averages and records for this station are not official NWS values.
T = Trace of Precipitation, MM = Missing Value Source: NWS Daily Summary

Daily Weather History Graph

Daily Weather History Graph

Search for Another Location

Airport:

Trip Planner

Search our weather history database for the weather conditions in past years. The results will help you decide how hot, cold, wet, or windy it might be!

Date:

Astronomy

Mar. 15, 2014 Rise Set
Actual Time 9:00 AM AKDT 8:42 PM AKDT
Civil Twilight 8:07 AM AKDT 9:35 PM AKDT
Nautical Twilight 7:03 AM AKDT 10:39 PM AKDT
Astronomical Twilight 5:50 AM AKDT 11:54 PM AKDT
Moon 8:12 PM AKDT (3/15) 8:29 AM AKDT (3/15)
Length of Visible Light 13h 27m
Length of Day
11h 41m
Waxing Gibbous, 99% of the Moon is Illuminated
Mar 15
Waxing Gibbous
Mar 16
Full
Mar 23
Last Quarter
Mar 30
New
Apr 7
First Quarter

Hourly Weather History & Observations

Time (AKDT) Temp. Windchill Dew Point Humidity Pressure Visibility Wind Dir Wind Speed Gust Speed Precip Events Conditions
12:01 AM 6.1 °F -4.3 °F 3.0 °F 87% 29.37 in 10.0 mi South 5.8 mph - N/A   Partly Cloudy
1:01 AM 5.0 °F -9.1 °F 1.9 °F 87% 29.39 in 10.0 mi SSW 9.2 mph - N/A   Clear
2:01 AM 5.0 °F -11.6 °F 1.9 °F 87% 29.41 in 10.0 mi SSW 12.7 mph 18.4 mph N/A   Clear
3:01 AM 5.0 °F -10.8 °F 1.9 °F 87% 29.44 in 10.0 mi South 11.5 mph - N/A   Overcast
4:01 AM 6.1 °F -7.8 °F 3.0 °F 87% 29.46 in 6.0 mi South 9.2 mph - 0.00 in Snow Light Snow
5:01 AM 6.1 °F -8.7 °F 1.9 °F 83% 29.51 in 9.0 mi SW 10.4 mph 18.4 mph 0.00 in Snow Light Snow
5:37 AM 6.8 °F -6.9 °F 3.2 °F 85% 29.40 in 10.0 mi SW 9.2 mph - 0.00 in Snow Light Snow
6:01 AM 7.0 °F -9.1 °F 3.0 °F 84% 29.55 in 9.0 mi SW 12.7 mph - 0.00 in Snow Light Snow
7:01 AM 8.1 °F -4.3 °F 5.0 °F 87% 29.57 in 6.0 mi SSW 8.1 mph - 0.00 in Snow Light Snow
8:01 AM 8.1 °F -4.3 °F 5.0 °F 87% 29.61 in 4.0 mi SW 8.1 mph - 0.00 in Snow Light Snow
8:14 AM 8.6 °F -2.6 °F 5.0 °F 85% 29.48 in 6.0 mi SW 6.9 mph - 0.00 in Snow Light Snow
9:01 AM 8.1 °F -5.3 °F 3.9 °F 83% 29.63 in 8.0 mi WSW 9.2 mph - 0.00 in Snow Light Snow
9:55 AM 6.8 °F -2.0 °F 3.2 °F 85% 29.52 in 1.8 mi SW 4.6 mph - 0.00 in Snow Light Snow
9:56 AM 7.0 °F -3.3 °F 3.9 °F 87% 29.65 in 1.8 mi SW 5.8 mph - 0.00 in Snow Light Snow
10:14 AM 6.8 °F -2.0 °F 3.2 °F 85% 29.53 in 1.5 mi SSW 4.6 mph - 0.00 in Snow Light Snow
10:30 AM 6.8 °F -5.9 °F 3.2 °F 85% 29.54 in 2.5 mi SW 8.1 mph - 0.00 in Snow Light Snow
10:54 AM 6.8 °F -4.8 °F 3.2 °F 85% 29.55 in 1.5 mi SSW 6.9 mph - 0.00 in Snow Light Snow
11:01 AM 7.0 °F -4.5 °F 3.9 °F 87% 29.69 in 1.2 mi SSW 6.9 mph - 0.00 in Snow Light Snow
12:01 PM 8.1 °F -3.2 °F 3.9 °F 83% 29.72 in 1.2 mi SSW 6.9 mph - 0.00 in Snow Light Snow
12:15 PM 8.6 °F -2.6 °F 3.2 °F 79% 29.60 in 1.5 mi SSW 6.9 mph - 0.00 in Snow Light Snow
12:25 PM 8.6 °F -1.3 °F 5.0 °F 85% 29.60 in 3.0 mi South 5.8 mph - 0.00 in Snow Light Snow
12:44 PM 8.6 °F -2.6 °F 3.2 °F 79% 29.61 in 2.0 mi SSW 6.9 mph - 0.00 in Snow Light Snow
12:56 PM 8.6 °F -1.3 °F 3.2 °F 79% 29.62 in 4.0 mi SW 5.8 mph - 0.00 in Snow Light Snow
1:01 PM 8.1 °F -3.2 °F 3.9 °F 83% 29.75 in 6.0 mi SSW 6.9 mph - 0.00 in Snow Light Snow
1:17 PM 8.6 °F -6.3 °F 3.2 °F 79% 29.62 in 2.5 mi SSW 11.5 mph - 0.00 in Snow Light Snow
1:25 PM 8.6 °F -3.7 °F 3.2 °F 79% 29.63 in 3.0 mi SSW 8.1 mph - 0.00 in Snow Light Snow
1:45 PM 6.8 °F -5.9 °F 3.2 °F 85% 29.64 in 1.8 mi SSW 8.1 mph - 0.00 in Snow Light Snow
1:51 PM 6.8 °F -6.9 °F 3.2 °F 85% 29.64 in 1.0 mi SSW 9.2 mph - 0.00 in Snow Light Snow
1:59 PM 6.8 °F -6.9 °F 3.2 °F 85% 29.64 in 1.2 mi SSW 9.2 mph - 0.00 in Snow Light Snow
2:01 PM 7.0 °F -7.5 °F 3.9 °F 87% 29.78 in 1.2 mi SSW 10.4 mph - 0.00 in Snow Light Snow
2:11 PM 6.8 °F -5.9 °F 3.2 °F 85% 29.64 in 2.0 mi SW 8.1 mph - 0.00 in Snow Light Snow
2:35 PM 5.0 °F -10.8 °F 1.4 °F 85% 29.65 in 1.0 mi SSW 11.5 mph - 0.00 in Snow Light Snow
2:44 PM 5.0 °F -10.8 °F 1.4 °F 85% 29.65 in 0.8 mi SSW 11.5 mph - 0.00 in Snow Light Snow
2:49 PM 5.0 °F -10.0 °F 1.4 °F 85% 29.65 in 1.2 mi SSW 10.4 mph - 0.00 in Snow Light Snow
3:01 PM 6.8 °F -6.9 °F 1.4 °F 79% 29.66 in 2.0 mi SSW 9.2 mph - 0.00 in Snow Light Snow
3:20 PM 6.8 °F -5.9 °F 1.4 °F 79% 29.66 in 1.5 mi SW 8.1 mph - 0.00 in Snow Light Snow
3:32 PM 6.8 °F -4.8 °F 1.4 °F 79% 29.66 in 1.8 mi SSW 6.9 mph - 0.00 in Snow Light Snow
3:39 PM 6.8 °F -4.8 °F 1.4 °F 79% 29.66 in 6.0 mi SSW 6.9 mph - 0.00 in Snow Light Snow
4:01 PM 6.1 °F -5.6 °F 1.0 °F 80% 29.81 in 8.0 mi WSW 6.9 mph - 0.00 in Snow Light Snow
4:11 PM 6.8 °F -2.0 °F 1.4 °F 79% 29.67 in 8.0 mi WSW 4.6 mph - 0.00 in Snow Light Snow
4:47 PM 6.8 °F -2.0 °F 1.4 °F 79% 29.69 in 3.0 mi SE 4.6 mph - 0.00 in Snow Light Snow
5:01 PM 7.0 °F -4.5 °F -0.0 °F 73% 29.82 in 9.0 mi SE 6.9 mph - 0.00 in Snow Light Snow
5:28 PM 6.8 °F -4.8 °F -0.4 °F 72% 29.69 in 10.0 mi ESE 6.9 mph - 0.00 in   Overcast
6:01 PM 6.1 °F -7.8 °F -0.0 °F 76% 29.82 in 10.0 mi South 9.2 mph - 0.00 in   Overcast
7:01 PM 5.0 °F -5.6 °F 1.0 °F 84% 29.83 in 4.0 mi SSW 5.8 mph - 0.00 in Snow Light Snow
7:34 PM 3.2 °F -9.1 °F -0.4 °F 85% 29.70 in 5.0 mi SSW 6.9 mph - 0.00 in   Overcast
8:01 PM 3.9 °F -5.3 °F -2.0 °F 76% 29.85 in 10.0 mi SSW 4.6 mph - 0.00 in   Overcast
8:09 PM 3.2 °F -6.2 °F -2.2 °F 78% 29.71 in 10.0 mi SW 4.6 mph - N/A   Overcast
9:01 PM 1.9 °F -5.6 °F -2.0 °F 83% 29.85 in 9.0 mi East 3.5 mph - N/A   Overcast
10:01 PM 1.0 °F - -2.0 °F 87% 29.86 in 10.0 mi Calm Calm - N/A   Overcast
11:01 PM -0.9 °F -11.0 °F -6.0 °F 79% 29.87 in 10.0 mi East 4.6 mph - N/A   Clear